Date,Time,CONDUCTIVITY,WATER TEMPERATURE,WATER DEPTH,WATER LEVEL
20/11/2015,23:00:00,1594.9,15.0,1.73,5.01
21/11/2015,23:00:00,1590.8,15.0,1.65,5.07
22/11/2015,23:00:00,1515.5,15.0,1.64,5.08
23/11/2015,23:00:00,1547.4,15.1,1.70,5.02
24/11/2015,23:00:00,1533.4,15.0,1.71,5.01
25/11/2015,23:00:00,1544.8,15.0,1.60,5.12
26/11/2015,23:00:00,1504.7,15.0,1.53,5.19
27/11/2015,23:00:00,1523.6,15.0,1.57,5.15
28/11/2015,23:00:00,1481.4,15.0,1.61,5.11
29/11/2015,23:00:00,1478.3,15.0,1.67,5.05
30/11/2015,23:00:00,1594.7,15.0,1.72,5.00
01/12/2015,23:00:00,1607.4,15.0,1.74,4.98
02/12/2015,23:00:00,1526.4,15.0,1.74,4.98
03/12/2015,23:00:00,1564.9,15.0,1.78,4.94
04/12/2015,23:00:00,1667.3,15.1,1.79,4.93
05/12/2015,23:00:00,1667.3,15.2,1.77,4.95
06/12/2015,23:00:00,1544.4,15.0,1.76,4.96
07/12/2015,23:00:00,1556.5,15.0,1.73,4.99
08/12/2015,23:00:00,1538.3,15.0,1.69,5.03
09/12/2015,23:00:00,1543.7,15.2,1.66,5.06
10/12/2015,23:00:00,1543.9,15.2,1.66,5.06
11/12/2015,23:00:00,1551.5,15.0,1.60,5.12
12/12/2015,23:00:00,1545.5,14.9,1.61,5.11
13/12/2015,23:00:00,1557.3,14.9,1.65,5.07
14/12/2015,23:00:00,1596.9,14.9,1.65,5.07
15/12/2015,23:00:00,1623.5,14.9,1.67,5.05
16/12/2015,23:00:00,1558.3,14.9,1.67,5.05
17/12/2015,23:00:00,1558.3,14.8,1.66,5.06
18/12/2015,23:00:00,1599.7,14.8,1.71,5.01
19/12/2015,23:00:00,1616.6,14.8,1.79,4.93
20/12/2015,23:00:00,1674.4,14.8,1.90,4.82
21/12/2015,23:00:00,1675.9,14.9,1.97,4.75
22/12/2015,23:00:00,1694.0,14.9,2.00,4.72
23/12/2015,23:00:00,1649.3,14.9,2.02,4.70
24/12/2015,23:00:00,1670.1,14.8,2.03,4.69
25/12/2015,23:00:00,1677.2,14.8,2.03,4.69
26/12/2015,23:00:00,1710.0,14.8,2.05,4.67
27/12/2015,23:00:00,1659.0,14.9,2.05,4.67
28/12/2015,23:00:00,1619.8,14.9,2.03,4.69
29/12/2015,23:00:00,1632.4,14.9,1.98,4.74
30/12/2015,23:00:00,1680.8,14.7,1.97,4.75
31/12/2015,23:00:00,1597.3,14.7,2.01,4.71
01/01/2016,23:00:00,1573.1,14.4,2.04,4.68
02/01/2016,23:00:00,1602.3,14.3,2.00,4.72
03/01/2016,23:00:00,1585.4,14.2,1.95,4.77
04/01/2016,23:00:00,1601.1,14.3,1.93,4.79
05/01/2016,23:00:00,1658.1,14.4,2.02,4.70
06/01/2016,23:00:00,1685.6,14.4,2.12,4.60
07/01/2016,23:00:00,1654.9,14.3,2.15,4.57
08/01/2016,23:00:00,1681.3,14.3,2.32,4.40
09/01/2016,23:00:00,1682.5,14.3,2.33,4.39
10/01/2016,23:00:00,1639.8,14.4,2.49,4.23
11/01/2016,23:00:00,1645.9,14.3,2.53,4.19
12/01/2016,23:00:00,1661.0,14.3,2.52,4.20
13/01/2016,23:00:00,1681.7,14.3,2.54,4.18
14/01/2016,23:00:00,1686.2,14.3,2.60,4.12
15/01/2016,23:00:00,1618.2,14.3,2.60,4.12
16/01/2016,23:00:00,1645.0,14.1,2.52,4.20
17/01/2016,23:00:00,1619.9,14.2,2.44,4.28
18/01/2016,23:00:00,1646.8,14.1,2.50,4.22
19/01/2016,23:00:00,1626.5,14.0,2.64,4.08
20/01/2016,23:00:00,1623.5,13.9,2.63,4.09
21/01/2016,23:00:00,1620.3,13.9,2.67,4.05
22/01/2016,23:00:00,1609.2,13.9,2.72,4.00
23/01/2016,23:00:00,1590.5,13.9,2.76,3.96
24/01/2016,23:00:00,1553.1,13.9,2.77,3.95
25/01/2016,23:00:00,1565.0,13.8,2.76,3.96
26/01/2016,23:00:00,1584.7,13.5,2.72,4.00
27/01/2016,23:00:00,1549.6,13.8,2.74,3.98
28/01/2016,23:00:00,1575.5,13.4,2.72,4.00
29/01/2016,23:00:00,1564.3,13.7,2.70,4.02
30/01/2016,23:00:00,1576.3,13.7,2.68,4.04
31/01/2016,23:00:00,1569.1,13.8,2.64,4.08
01/02/2016,23:00:00,1557.4,13.9,2.61,4.11
02/02/2016,23:00:00,1566.7,14.0,2.66,4.06
03/02/2016,23:00:00,1552.0,14.0,2.63,4.09
04/02/2016,23:00:00,1529.0,14.1,2.57,4.15
05/02/2016,23:00:00,1535.3,14.2,2.52,4.20
06/02/2016,23:00:00,1558.5,14.1,2.66,4.06
07/02/2016,23:00:00,1534.2,13.9,2.69,4.03
08/02/2016,23:00:00,1533.1,13.9,2.69,4.03
09/02/2016,23:00:00,1537.5,13.7,2.66,4.06
10/02/2016,23:00:00,1576.8,13.6,2.60,4.12
11/02/2016,23:00:00,1563.7,13.7,2.58,4.14
12/02/2016,23:00:00,1557.0,13.9,2.62,4.10
13/02/2016,23:00:00,1573.5,13.7,2.61,4.11
14/02/2016,23:00:00,1565.3,13.9,2.66,4.06
15/02/2016,23:00:00,1570.5,14.0,2.75,3.97
16/02/2016,23:00:00,1590.9,13.9,2.83,3.89
17/02/2016,23:00:00,1573.3,14.1,2.82,3.90
18/02/2016,23:00:00,1554.9,14.1,2.72,4.00
19/02/2016,23:00:00,1572.7,14.3,2.74,3.98
20/02/2016,23:00:00,1561.5,14.5,2.77,3.95
21/02/2016,23:00:00,1541.2,14.5,2.77,3.95
22/02/2016,23:00:00,1545.8,14.4,2.78,3.94
23/02/2016,23:00:00,1552.6,14.5,2.72,4.00
24/02/2016,23:00:00,1541.7,14.7,2.66,4.06
25/02/2016,23:00:00,1529.7,14.8,2.67,4.05
26/02/2016,23:00:00,1558.9,14.8,2.64,4.08
27/02/2016,23:00:00,1548.0,14.9,2.65,4.07
28/02/2016,23:00:00,1552.7,14.8,2.65,4.07
29/02/2016,23:00:00,1536.4,14.6,2.60,4.12
01/03/2016,23:00:00,1557.2,14.5,2.56,4.16
02/03/2016,23:00:00,1550.5,14.7,2.50,4.22
03/03/2016,23:00:00,1559.1,14.7,2.46,4.26
04/03/2016,23:00:00,1525.0,14.7,2.47,4.25
05/03/2016,23:00:00,1523.5,14.7,2.54,4.18
06/03/2016,23:00:00,1525.9,14.8,2.53,4.19
07/03/2016,23:00:00,1529.1,14.9,2.46,4.26
08/03/2016,23:00:00,1510.0,14.7,2.43,4.29
09/03/2016,23:00:00,1509.2,14.7,2.43,4.29
10/03/2016,23:00:00,1523.0,14.9,2.42,4.30
11/03/2016,23:00:00,1519.6,14.9,2.46,4.26
12/03/2016,23:00:00,1543.0,15.0,2.40,4.32
13/03/2016,23:00:00,1529.1,14.9,2.34,4.38
14/03/2016,23:00:00,1496.1,15.0,2.35,4.37
15/03/2016,23:00:00,1473.1,14.8,2.43,4.29
16/03/2016,23:00:00,1441.4,14.8,2.45,4.27
17/03/2016,23:00:00,1468.3,14.8,2.45,4.27
18/03/2016,23:00:00,1454.1,14.8,2.36,4.36
19/03/2016,23:00:00,1448.8,14.9,2.29,4.43
20/03/2016,23:00:00,1479.4,14.9,2.32,4.40
21/03/2016,23:00:00,1474.5,14.9,2.31,4.41
22/03/2016,23:00:00,1490.9,15.1,2.21,4.51
23/03/2016,23:00:00,1495.4,14.9,2.10,4.62
24/03/2016,23:00:00,1488.6,14.9,2.11,4.61
25/03/2016,23:00:00,1518.9,14.9,2.17,4.55
26/03/2016,23:00:00,1532.3,15.0,2.20,4.52
27/03/2016,23:00:00,1511.6,14.9,2.16,4.56
28/03/2016,23:00:00,1478.4,14.9,2.20,4.52
29/03/2016,23:00:00,1474.1,14.9,2.19,4.53
30/03/2016,23:00:00,1516.1,15.0,2.19,4.53
31/03/2016,23:00:00,1513.5,15.1,2.17,4.55
01/04/2016,23:00:00,1497.2,15.1,2.11,4.61
02/04/2016,23:00:00,1542.2,15.1,2.06,4.66
03/04/2016,23:00:00,1541.4,15.1,2.02,4.70
04/04/2016,23:00:00,1464.3,15.1,1.97,4.75
05/04/2016,23:00:00,1486.2,15.2,1.93,4.79
06/04/2016,23:00:00,1487.1,15.1,1.90,4.82
07/04/2016,23:00:00,1431.5,15.1,1.86,4.86
08/04/2016,23:00:00,1429.2,15.1,1.86,4.86
09/04/2016,23:00:00,1405.0,15.1,1.83,4.89
10/04/2016,23:00:00,1305.0,15.1,1.83,4.89
11/04/2016,23:00:00,1262.1,15.8,1.85,4.87
12/04/2016,23:00:00,1226.7,15.1,1.87,4.85
13/04/2016,23:00:00,1348.0,15.1,1.87,4.85
14/04/2016,23:00:00,1368.4,15.1,1.84,4.88
15/04/2016,23:00:00,1329.8,15.2,1.82,4.90
16/04/2016,23:00:00,1308.8,15.2,1.85,4.87
17/04/2016,23:00:00,1263.9,15.3,1.84,4.88
18/04/2016,23:00:00,1294.0,15.3,1.82,4.90
19/04/2016,23:00:00,1251.4,15.3,1.78,4.94
20/04/2016,23:00:00,1261.0,15.2,1.72,5.00
21/04/2016,23:00:00,1306.2,15.2,1.79,4.93
22/04/2016,23:00:00,1204.8,15.3,1.76,4.96
23/04/2016,23:00:00,1239.3,15.3,1.67,5.05
24/04/2016,23:00:00,1332.6,15.3,1.60,5.12
25/04/2016,23:00:00,1279.0,15.3,1.59,5.13
26/04/2016,23:00:00,1288.2,15.5,1.61,5.11
27/04/2016,23:00:00,1243.2,15.3,1.68,5.04
28/04/2016,23:00:00,1301.3,15.3,1.67,5.05
29/04/2016,23:00:00,1342.1,15.3,1.63,5.09
30/04/2016,23:00:00,1352.5,15.3,1.61,5.11
01/05/2016,23:00:00,1373.9,15.2,1.64,5.08
02/05/2016,23:00:00,1349.0,15.3,1.60,5.12
03/05/2016,23:00:00,1383.1,15.2,1.59,5.13
04/05/2016,23:00:00,1391.9,15.5,1.58,5.14
05/05/2016,23:00:00,1368.4,15.3,1.60,5.12
06/05/2016,23:00:00,1407.0,15.3,1.61,5.11
07/05/2016,23:00:00,1327.2,15.4,1.59,5.13
08/05/2016,23:00:00,1323.8,15.4,1.59,5.13
09/05/2016,23:00:00,1321.4,15.5,1.56,5.16
10/05/2016,23:00:00,1280.1,15.6,1.54,5.18
11/05/2016,23:00:00,1228.0,15.5,1.49,5.23
12/05/2016,23:00:00,1270.0,15.3,1.42,5.30
13/05/2016,23:00:00,1292.1,15.6,1.39,5.33
14/05/2016,23:00:00,1282.6,15.3,1.42,5.30
15/05/2016,23:00:00,1214.7,15.4,1.45,5.27
16/05/2016,23:00:00,1215.7,15.5,1.47,5.25
17/05/2016,23:00:00,1276.8,15.6,1.45,5.27
18/05/2016,23:00:00,1296.7,15.5,1.45,5.27
19/05/2016,23:00:00,1331.5,15.6,1.46,5.26
20/05/2016,23:00:00,1394.1,15.4,1.42,5.30
21/05/2016,23:00:00,1385.2,15.7,1.34,5.38
22/05/2016,23:00:00,1385.0,16.4,1.37,5.35
23/05/2016,23:00:00,1430.9,15.8,1.39,5.33
24/05/2016,23:00:00,1387.1,15.9,1.34,5.38
25/05/2016,23:00:00,1368.0,16.1,1.28,5.44
26/05/2016,23:00:00,1388.3,16.0,1.27,5.45
27/05/2016,23:00:00,1370.6,15.8,1.28,5.44
28/05/2016,23:00:00,1349.3,16.3,1.28,5.44
29/05/2016,23:00:00,1238.5,16.3,1.25,5.47
30/05/2016,23:00:00,1239.2,17.1,1.22,5.50
31/05/2016,23:00:00,1205.9,17.8,1.20,5.52
01/06/2016,23:00:00,1244.5,18.3,1.20,5.52
02/06/2016,23:00:00,1244.9,17.1,1.16,5.56
03/06/2016,23:00:00,1229.9,16.7,1.13,5.59
04/06/2016,23:00:00,1270.4,17.1,1.12,5.60
05/06/2016,23:00:00,1240.8,17.5,1.14,5.58
06/06/2016,23:00:00,1272.0,17.2,1.13,5.59
07/06/2016,23:00:00,1273.4,17.2,1.12,5.60
08/06/2016,23:00:00,1363.4,18.1,1.12,5.60
09/06/2016,23:00:00,1357.6,17.1,1.11,5.61
10/06/2016,23:00:00,1243.8,17.8,1.08,5.64
11/06/2016,23:00:00,1311.3,17.9,1.08,5.64
12/06/2016,23:00:00,1285.3,17.8,1.07,5.65
13/06/2016,23:00:00,1295.7,17.6,1.00,5.72
14/06/2016,23:00:00,1292.2,17.2,0.94,5.78
15/06/2016,23:00:00,1283.2,18.6,0.98,5.74
16/06/2016,23:00:00,1258.3,19.0,1.03,5.69
17/06/2016,23:00:00,1295.9,22.2,1.02,5.70
18/06/2016,23:00:00,1261.4,19.4,0.99,5.73
19/06/2016,23:00:00,1228.7,20.9,0.95,5.77
20/06/2016,23:00:00,1229.8,18.8,0.96,5.76
21/06/2016,23:00:00,1196.0,21.8,0.97,5.75
22/06/2016,23:00:00,1292.3,23.3,0.96,5.76
23/06/2016,23:00:00,1409.1,22.3,0.94,5.78
24/06/2016,23:00:00,1416.2,20.3,0.90,5.82
25/06/2016,23:00:00,1359.5,21.0,0.87,5.85
26/06/2016,23:00:00,1386.7,21.5,0.88,5.84
27/06/2016,23:00:00,1365.7,22.6,0.89,5.83
28/06/2016,23:00:00,1379.8,20.7,0.85,5.87
29/06/2016,23:00:00,1425.8,22.5,0.86,5.86
30/06/2016,23:00:00,1428.3,27.2,0.89,5.83
01/07/2016,23:00:00,1498.1,26.1,0.87,5.85
02/07/2016,23:00:00,1543.3,27.7,0.84,5.88
03/07/2016,23:00:00,1559.6,26.9,0.80,5.92
04/07/2016,23:00:00,1573.3,26.7,0.79,5.93
05/07/2016,23:00:00,1581.9,25.4,0.78,5.94
06/07/2016,23:00:00,1585.2,24.8,0.77,5.95
07/07/2016,23:00:00,1585.3,24.8,0.76,5.96
08/07/2016,23:00:00,1581.4,25.9,0.78,5.94
09/07/2016,23:00:00,1595.7,25.2,0.76,5.96
10/07/2016,23:00:00,1582.0,26.0,0.74,5.98
11/07/2016,23:00:00,1580.4,25.6,0.72,6.00
12/07/2016,23:00:00,1571.1,25.8,0.70,6.02
13/07/2016,23:00:00,1530.8,25.5,0.69,6.03
14/07/2016,23:00:00,1538.4,26.0,0.66,6.06
15/07/2016,23:00:00,1516.0,24.8,0.63,6.09
16/07/2016,23:00:00,1487.3,27.1,0.65,6.07
17/07/2016,23:00:00,1515.3,26.2,0.65,6.07
18/07/2016,23:00:00,1532.0,24.5,0.64,6.08
19/07/2016,23:00:00,1516.2,26.5,0.63,6.09
20/07/2016,23:00:00,1552.6,25.6,0.61,6.11
21/07/2016,23:00:00,1573.5,25.6,0.64,6.08
22/07/2016,23:00:00,1584.1,26.2,0.63,6.09
23/07/2016,23:00:00,1602.9,25.0,0.62,6.10
24/07/2016,23:00:00,1588.4,26.7,0.58,6.14
25/07/2016,23:00:00,1599.3,25.9,0.56,6.16
26/07/2016,23:00:00,1603.5,25.8,0.56,6.16
27/07/2016,23:00:00,1599.4,26.6,0.55,6.17
28/07/2016,23:00:00,1618.5,26.1,0.55,6.17
29/07/2016,23:00:00,1644.5,25.2,0.53,6.19
30/07/2016,23:00:00,1635.9,25.8,0.52,6.20
31/07/2016,23:00:00,1650.0,25.0,0.52,6.20
01/08/2016,23:00:00,1638.5,25.9,0.51,6.21
02/08/2016,23:00:00,1636.8,26.7,0.49,6.23
03/08/2016,23:00:00,1638.5,27.0,0.48,6.24
04/08/2016,23:00:00,1637.6,27.2,0.50,6.22
05/08/2016,23:00:00,1628.1,22.1,0.49,6.23
06/08/2016,23:00:00,1627.7,21.9,0.49,6.23
07/08/2016,23:00:00,1639.0,27.7,0.50,6.22
08/08/2016,23:00:00,1642.5,27.9,0.49,6.23
09/08/2016,23:00:00,1644.7,27.2,0.47,6.25
10/08/2016,23:00:00,1665.9,25.5,0.47,6.25
11/08/2016,23:00:00,1645.5,28.0,0.47,6.25
12/08/2016,23:00:00,1650.3,27.7,0.47,6.25
13/08/2016,23:00:00,1654.7,27.4,0.49,6.23
14/08/2016,23:00:00,1657.2,25.7,0.50,6.22
15/08/2016,23:00:00,1663.8,24.5,0.46,6.26
16/08/2016,23:00:00,1661.3,24.7,0.41,6.31
17/08/2016,23:00:00,1653.4,25.9,0.38,6.34
18/08/2016,23:00:00,1653.6,26.5,0.35,6.37
19/08/2016,23:00:00,1654.6,26.7,0.34,6.38
20/08/2016,23:00:00,1655.6,26.8,0.35,6.37
21/08/2016,23:00:00,1657.0,27.0,0.36,6.36
22/08/2016,23:00:00,1658.5,26.9,0.36,6.36
23/08/2016,23:00:00,1658.5,27.1,0.34,6.38
24/08/2016,23:00:00,1655.7,27.3,0.34,6.38
25/08/2016,23:00:00,1717.0,25.4,0.38,6.34
26/08/2016,23:00:00,1760.5,25.0,0.49,6.23
27/08/2016,23:00:00,1741.1,23.6,0.52,6.20
28/08/2016,23:00:00,1755.1,23.1,0.51,6.21
29/08/2016,23:00:00,1748.1,22.5,0.49,6.23
30/08/2016,23:00:00,1764.5,24.5,0.48,6.24
31/08/2016,23:00:00,1772.5,23.4,0.49,6.23
01/09/2016,23:00:00,1776.1,24.2,0.48,6.24
02/09/2016,23:00:00,1785.2,23.2,0.46,6.26
03/09/2016,23:00:00,1830.8,20.0,0.45,6.27
04/09/2016,23:00:00,1869.9,20.1,0.48,6.24
05/09/2016,23:00:00,1871.5,20.1,0.48,6.24
06/09/2016,23:00:00,1840.5,21.5,0.46,6.26
07/09/2016,23:00:00,1865.2,20.3,0.47,6.25
08/09/2016,23:00:00,1842.7,21.7,0.45,6.27
09/09/2016,23:00:00,1851.0,21.1,0.44,6.28
10/09/2016,23:00:00,1823.4,21.9,0.47,6.25
11/09/2016,23:00:00,1783.7,22.3,0.51,6.21
12/09/2016,23:00:00,1666.5,20.9,0.56,6.16
13/09/2016,23:00:00,1697.6,22.6,0.55,6.17
14/09/2016,23:00:00,1704.0,23.0,0.54,6.18
15/09/2016,23:00:00,1459.5,15.4,0.56,6.16
16/09/2016,23:00:00,1714.5,23.2,0.57,6.15
17/09/2016,23:00:00,1757.7,25.0,0.54,6.18
18/09/2016,23:00:00,1752.6,25.7,0.49,6.23
19/09/2016,23:00:00,1730.6,24.4,0.45,6.27
20/09/2016,23:00:00,1608.0,23.7,0.42,6.30
21/09/2016,23:00:00,1731.5,22.8,0.44,6.28
22/09/2016,23:00:00,1719.6,22.2,0.46,6.26
23/09/2016,23:00:00,1609.5,22.2,0.56,6.16
24/09/2016,23:00:00,1682.8,21.3,0.57,6.15
25/09/2016,23:00:00,1708.4,21.1,0.51,6.21
26/09/2016,23:00:00,1740.0,22.5,0.47,6.25
27/09/2016,23:00:00,1710.1,21.4,0.49,6.23
28/09/2016,23:00:00,1744.2,22.3,0.51,6.21
29/09/2016,23:00:00,1739.3,22.1,0.49,6.23
30/09/2016,23:00:00,1746.2,22.5,0.44,6.28
01/10/2016,23:00:00,1746.7,22.5,0.39,6.33
02/10/2016,23:00:00,1741.8,22.6,0.37,6.35
03/10/2016,23:00:00,1721.9,22.9,0.35,6.37
04/10/2016,23:00:00,1514.6,22.6,0.33,6.39
05/10/2016,23:00:00,1505.8,22.6,0.32,6.40
06/10/2016,23:00:00,1589.6,22.1,0.33,6.39
07/10/2016,23:00:00,1587.2,18.6,0.33,6.39
08/10/2016,23:00:00,1712.4,22.7,0.29,6.43
09/10/2016,23:00:00,1718.4,21.5,0.33,6.39
10/10/2016,23:00:00,1718.8,21.7,0.31,6.41
11/10/2016,23:00:00,1684.0,20.2,0.26,6.46
12/10/2016,23:00:00,1579.3,19.4,0.26,6.46
13/10/2016,23:00:00,1730.0,20.1,0.31,6.41
14/10/2016,23:00:00,1746.1,19.1,0.34,6.38
15/10/2016,23:00:00,1836.5,18.4,0.34,6.38
16/10/2016,23:00:00,1830.2,18.1,0.32,6.40
17/10/2016,23:00:00,1861.1,17.1,0.32,6.40
18/10/2016,23:00:00,1830.2,17.8,0.34,6.38
19/10/2016,23:00:00,1683.6,17.4,0.32,6.40
20/10/2016,23:00:00,1704.0,18.6,0.30,6.42
21/10/2016,23:00:00,1638.1,19.2,0.28,6.44
22/10/2016,23:00:00,1732.2,20.6,0.27,6.45
23/10/2016,23:00:00,1708.7,21.2,0.27,6.45
24/10/2016,23:00:00,1711.8,20.5,0.29,6.43
25/10/2016,23:00:00,1757.5,17.7,0.30,6.42
26/10/2016,23:00:00,1720.8,17.7,0.26,6.46
27/10/2016,23:00:00,1715.0,18.4,0.24,6.48
28/10/2016,23:00:00,1648.4,18.2,0.26,6.46
29/10/2016,23:00:00,1640.5,17.7,0.30,6.42
30/10/2016,23:00:00,1673.2,19.2,0.26,6.46
31/10/2016,23:00:00,1608.8,17.0,0.31,6.41
01/11/2016,23:00:00,1618.5,15.1,0.44,6.28
02/11/2016,23:00:00,1540.0,16.9,0.46,6.26
03/11/2016,23:00:00,1673.9,18.1,0.44,6.28
04/11/2016,23:00:00,1679.8,18.1,0.43,6.29
05/11/2016,23:00:00,1711.7,19.4,0.43,6.29
06/11/2016,23:00:00,1672.7,18.1,0.41,6.31
07/11/2016,23:00:00,1612.2,16.9,0.38,6.34
08/11/2016,23:00:00,1584.4,15.7,0.35,6.37
09/11/2016,23:00:00,1631.0,15.6,0.32,6.40
10/11/2016,23:00:00,1603.3,16.2,0.38,6.34
11/11/2016,23:00:00,1554.3,16.5,0.43,6.29
12/11/2016,23:00:00,1575.5,16.1,0.43,6.29
13/11/2016,23:00:00,1726.1,17.5,0.42,6.30
14/11/2016,23:00:00,1711.4,16.7,0.44,6.28
15/11/2016,23:00:00,1607.2,16.8,0.45,6.27
16/11/2016,23:00:00,1632.4,16.5,0.43,6.29
17/11/2016,23:00:00,1711.6,16.9,0.41,6.31
18/11/2016,23:00:00,*,*,*,*
19/11/2016,23:00:00,*,*,*,*
20/11/2016,23:00:00,*,*,*,*
21/11/2016,23:00:00,*,*,*,*
22/11/2016,23:00:00,*,*,*,*
23/11/2016,23:00:00,*,*,*,*
24/11/2016,23:00:00,*,*,*,*
25/11/2016,23:00:00,*,*,*,*
26/11/2016,23:00:00,*,*,*,*
27/11/2016,23:00:00,*,*,*,*
28/11/2016,23:00:00,*,*,*,*
29/11/2016,23:00:00,*,*,*,*
30/11/2016,23:00:00,*,*,*,*
01/12/2016,23:00:00,*,*,*,*
02/12/2016,23:00:00,*,*,*,*
03/12/2016,23:00:00,*,*,*,*
04/12/2016,23:00:00,*,*,*,*
05/12/2016,23:00:00,*,*,*,*
06/12/2016,23:00:00,*,*,*,*
07/12/2016,23:00:00,*,*,*,*
08/12/2016,23:00:00,*,*,*,*
09/12/2016,23:00:00,*,*,*,*
10/12/2016,23:00:00,*,*,*,*
11/12/2016,23:00:00,*,*,*,*
12/12/2016,23:00:00,*,*,*,*
13/12/2016,23:00:00,*,*,*,*
14/12/2016,23:00:00,*,*,*,*
15/12/2016,23:00:00,*,*,*,*
16/12/2016,23:00:00,*,*,*,*
17/12/2016,23:00:00,*,*,*,*
18/12/2016,23:00:00,*,*,*,*
19/12/2016,23:00:00,*,*,*,*
20/12/2016,23:00:00,*,*,*,*
21/12/2016,23:00:00,*,*,*,*
22/12/2016,23:00:00,*,*,*,*
23/12/2016,23:00:00,*,*,*,*
24/12/2016,23:00:00,*,*,*,*
25/12/2016,23:00:00,*,*,*,*
26/12/2016,23:00:00,*,*,*,*
27/12/2016,23:00:00,*,*,*,*
28/12/2016,23:00:00,*,*,*,*
29/12/2016,23:00:00,*,*,*,*
30/12/2016,23:00:00,*,*,*,*
31/12/2016,23:00:00,*,*,*,*
01/01/2017,23:00:00,*,*,*,*
02/01/2017,23:00:00,*,*,*,*
03/01/2017,23:00:00,*,*,*,*
04/01/2017,23:00:00,*,*,*,*
05/01/2017,23:00:00,*,*,*,*
06/01/2017,23:00:00,*,*,*,*
07/01/2017,23:00:00,*,*,*,*
08/01/2017,23:00:00,*,*,*,*
09/01/2017,23:00:00,*,*,*,*
10/01/2017,23:00:00,*,*,*,*
11/01/2017,23:00:00,*,*,*,*
12/01/2017,23:00:00,*,*,*,*
13/01/2017,23:00:00,*,*,*,*
14/01/2017,23:00:00,*,*,*,*
15/01/2017,23:00:00,*,*,*,*
16/01/2017,23:00:00,*,*,*,*
17/01/2017,23:00:00,*,*,*,*
18/01/2017,23:00:00,*,*,*,*
19/01/2017,23:00:00,*,*,*,*
20/01/2017,23:00:00,*,*,*,*
21/01/2017,23:00:00,*,*,*,*
22/01/2017,23:00:00,*,*,*,*
23/01/2017,23:00:00,*,*,*,*
24/01/2017,23:00:00,*,*,*,*
25/01/2017,23:00:00,*,*,*,*
26/01/2017,23:00:00,*,*,*,*
27/01/2017,23:00:00,*,*,*,*
28/01/2017,23:00:00,*,*,*,*
29/01/2017,23:00:00,*,*,*,*
30/01/2017,23:00:00,*,*,*,*
31/01/2017,23:00:00,*,*,*,*
01/02/2017,23:00:00,*,*,*,*
02/02/2017,23:00:00,*,*,*,*
03/02/2017,23:00:00,*,*,*,*
04/02/2017,23:00:00,*,*,*,*
05/02/2017,23:00:00,*,*,*,*
06/02/2017,23:00:00,*,*,*,*
07/02/2017,23:00:00,*,*,*,*
08/02/2017,23:00:00,*,*,*,*
09/02/2017,23:00:00,*,*,*,*
10/02/2017,23:00:00,*,*,*,*
11/02/2017,23:00:00,*,*,*,*
12/02/2017,23:00:00,*,*,*,*
13/02/2017,23:00:00,*,*,*,*
14/02/2017,23:00:00,*,*,*,*
15/02/2017,23:00:00,*,*,*,*
16/02/2017,23:00:00,*,*,*,*
17/02/2017,23:00:00,*,*,*,*
18/02/2017,23:00:00,*,*,*,*
19/02/2017,23:00:00,*,*,*,*
20/02/2017,23:00:00,*,*,*,*
21/02/2017,23:00:00,*,*,*,*
22/02/2017,23:00:00,*,*,*,*
23/02/2017,23:00:00,1821.6,13.0,4.38,2.34
24/02/2017,23:00:00,1825.2,13.2,4.35,2.37
25/02/2017,23:00:00,1818.8,13.4,4.32,2.40
26/02/2017,23:00:00,1804.1,13.6,4.29,2.43
27/02/2017,23:00:00,1800.8,13.7,4.24,2.48
28/02/2017,23:00:00,1798.1,13.9,4.21,2.51
01/03/2017,23:00:00,1806.8,13.9,4.18,2.54
02/03/2017,23:00:00,1768.3,14.3,4.16,2.56
03/03/2017,23:00:00,1770.1,14.2,4.17,2.55
04/03/2017,23:00:00,1770.2,14.2,4.17,2.55
05/03/2017,23:00:00,1764.7,14.5,4.11,2.61
06/03/2017,23:00:00,1743.8,14.7,4.03,2.69
07/03/2017,23:00:00,1767.3,14.8,3.94,2.78
08/03/2017,23:00:00,1745.7,14.7,3.90,2.82
09/03/2017,23:00:00,1721.1,14.7,3.91,2.81
10/03/2017,23:00:00,1712.3,14.6,3.89,2.83
11/03/2017,23:00:00,1713.5,14.6,3.85,2.87
12/03/2017,23:00:00,1713.8,14.5,3.96,2.76
13/03/2017,23:00:00,1730.2,14.5,4.07,2.65
14/03/2017,23:00:00,1693.2,14.6,4.14,2.58
15/03/2017,23:00:00,1694.1,14.5,4.15,2.57
16/03/2017,23:00:00,1672.2,14.5,4.10,2.62
17/03/2017,23:00:00,1683.7,14.6,4.06,2.66
18/03/2017,23:00:00,1663.7,14.6,4.05,2.67
19/03/2017,23:00:00,1687.5,14.6,3.98,2.74
20/03/2017,23:00:00,1680.9,14.7,3.96,2.76
21/03/2017,23:00:00,1712.6,14.8,3.92,2.80
22/03/2017,23:00:00,1728.1,14.8,3.88,2.84
23/03/2017,23:00:00,1718.8,14.9,3.90,2.82
24/03/2017,23:00:00,1694.3,14.9,3.90,2.82
25/03/2017,23:00:00,1671.1,14.9,3.86,2.86
26/03/2017,23:00:00,1642.4,14.9,3.79,2.93
27/03/2017,23:00:00,1695.6,14.9,3.76,2.96
28/03/2017,23:00:00,1662.6,14.9,3.76,2.96
29/03/2017,23:00:00,1664.6,14.9,3.72,3.00
30/03/2017,23:00:00,1621.1,14.8,3.67,3.05
31/03/2017,23:00:00,1583.0,14.9,3.67,3.05
01/04/2017,23:00:00,1548.0,14.8,3.66,3.06
02/04/2017,23:00:00,1603.6,14.8,3.62,3.10
03/04/2017,23:00:00,1606.0,14.8,3.62,3.10
04/04/2017,23:00:00,1564.1,14.8,3.52,3.20
05/04/2017,23:00:00,1635.7,14.9,3.46,3.26
06/04/2017,23:00:00,1646.5,14.9,3.42,3.30
07/04/2017,23:00:00,1525.5,14.8,3.41,3.31
08/04/2017,23:00:00,1576.4,14.8,3.42,3.30
09/04/2017,23:00:00,1549.3,14.8,3.44,3.28
10/04/2017,23:00:00,1552.0,14.8,3.39,3.33
11/04/2017,23:00:00,1538.2,14.8,3.31,3.41
12/04/2017,23:00:00,1530.8,14.8,3.26,3.46
13/04/2017,23:00:00,1554.8,14.8,3.20,3.52
14/04/2017,23:00:00,1615.7,14.9,3.20,3.52
15/04/2017,23:00:00,1627.7,14.9,3.21,3.51
16/04/2017,23:00:00,1607.2,14.9,3.18,3.54
17/04/2017,23:00:00,1686.9,15.0,3.13,3.59
18/04/2017,23:00:00,1656.9,15.0,3.14,3.58
19/04/2017,23:00:00,1624.0,14.9,3.13,3.59
20/04/2017,23:00:00,1678.3,15.3,3.08,3.64
21/04/2017,23:00:00,1605.0,14.8,3.11,3.61
22/04/2017,23:00:00,1571.0,14.7,3.11,3.61
23/04/2017,23:00:00,1541.2,14.7,3.10,3.62
24/04/2017,23:00:00,1542.8,14.7,3.10,3.62
25/04/2017,23:00:00,1521.9,14.7,3.08,3.64
26/04/2017,23:00:00,1559.1,14.8,3.03,3.69
27/04/2017,23:00:00,1571.9,14.9,2.98,3.74
28/04/2017,23:00:00,1560.8,14.9,2.93,3.79
29/04/2017,23:00:00,1555.3,14.8,2.88,3.84
30/04/2017,23:00:00,1584.2,15.0,2.81,3.91
01/05/2017,23:00:00,1578.5,14.9,2.82,3.90
02/05/2017,23:00:00,1590.4,14.9,2.85,3.87
03/05/2017,23:00:00,1590.9,14.9,2.85,3.87
04/05/2017,23:00:00,1569.4,14.9,2.82,3.90
05/05/2017,23:00:00,1551.0,14.9,2.81,3.91
06/05/2017,23:00:00,1607.7,15.0,2.77,3.95
07/05/2017,23:00:00,1602.0,15.0,2.73,3.99
08/05/2017,23:00:00,1568.7,14.9,2.69,4.03
09/05/2017,23:00:00,1527.7,15.0,2.65,4.07
10/05/2017,23:00:00,1469.8,14.9,2.70,4.02
11/05/2017,23:00:00,1458.7,15.1,2.74,3.98
12/05/2017,23:00:00,1374.4,15.0,2.74,3.98
13/05/2017,23:00:00,1486.6,15.1,2.69,4.03
14/05/2017,23:00:00,1443.6,15.1,2.68,4.04
15/05/2017,23:00:00,1484.5,15.1,2.70,4.02
16/05/2017,23:00:00,1429.4,15.0,2.69,4.03
17/05/2017,23:00:00,1420.2,14.9,2.63,4.09
18/05/2017,23:00:00,1386.3,14.8,2.61,4.11
19/05/2017,23:00:00,1354.5,14.9,2.63,4.09
20/05/2017,23:00:00,1397.1,14.9,2.64,4.08
21/05/2017,23:00:00,1442.5,14.9,2.57,4.15
22/05/2017,23:00:00,1426.7,14.9,2.56,4.16
23/05/2017,23:00:00,1427.2,14.9,2.60,4.12
24/05/2017,23:00:00,1421.3,14.9,2.58,4.14
25/05/2017,23:00:00,1385.4,14.9,2.54,4.18
26/05/2017,23:00:00,1426.8,14.9,2.50,4.22
27/05/2017,23:00:00,1371.1,14.8,2.49,4.23
28/05/2017,23:00:00,1342.0,14.8,2.50,4.22
29/05/2017,23:00:00,1363.6,14.8,2.56,4.16
30/05/2017,23:00:00,1352.4,14.8,2.63,4.09
31/05/2017,23:00:00,1358.7,14.8,2.66,4.06
01/06/2017,23:00:00,1379.1,14.9,2.64,4.08
02/06/2017,23:00:00,1380.0,14.9,2.64,4.08
03/06/2017,23:00:00,1379.6,14.9,2.58,4.14
04/06/2017,23:00:00,1409.7,15.0,2.56,4.16
05/06/2017,23:00:00,1387.3,15.0,2.54,4.18
06/06/2017,23:00:00,1411.7,15.0,2.53,4.19
07/06/2017,23:00:00,1351.7,15.0,2.51,4.21
08/06/2017,23:00:00,1314.4,14.9,2.50,4.22
09/06/2017,23:00:00,1330.3,15.0,2.51,4.21
10/06/2017,23:00:00,1393.5,15.0,2.52,4.20
11/06/2017,23:00:00,1285.8,15.1,2.48,4.24
12/06/2017,23:00:00,1206.3,14.9,2.46,4.26
13/06/2017,23:00:00,1319.9,15.0,2.45,4.27
14/06/2017,23:00:00,1259.0,15.1,2.43,4.29
15/06/2017,23:00:00,1296.8,15.2,2.42,4.30
16/06/2017,23:00:00,1234.3,15.1,2.41,4.31
17/06/2017,23:00:00,1244.3,15.2,2.36,4.36
18/06/2017,23:00:00,1250.3,15.1,2.33,4.39
19/06/2017,23:00:00,1170.3,15.0,2.38,4.34
20/06/2017,23:00:00,1220.4,15.1,2.39,4.33
21/06/2017,23:00:00,1228.2,15.1,2.35,4.37
22/06/2017,23:00:00,1350.7,15.1,2.34,4.38
23/06/2017,23:00:00,1317.0,15.1,2.33,4.39
24/06/2017,23:00:00,1228.4,15.2,2.29,4.43
25/06/2017,23:00:00,1216.3,15.1,2.25,4.47
26/06/2017,23:00:00,1153.9,15.1,2.22,4.50
27/06/2017,23:00:00,1196.2,15.1,2.21,4.51
28/06/2017,23:00:00,1322.1,15.2,2.18,4.54
29/06/2017,23:00:00,1446.6,15.2,2.17,4.55